[[{"header":{"parameterUnit":"m.s-1","parameterCategory":1,"la1":30.2991,"la2":30.254,"lo1":-89.0895,"lo2":-89.0444,"dy":0.0017,"dx":0.0017,"nx":28,"ny":28,"refTime":"2023-09-07T09:00:00:Z","depth":0,"parameterNumber":2,"parameterNumberName":"U-component_of_WINDS"},"data":[0,0,0,0,0,0,0,0,0,0,0,0,0,0,0,0,0,0,0,0,0,0,0,0,0,0,0,0,0,0,0,0,0,0,0,0,0,0,0,0,0,0,0,0,0,0,0,0,0,0,0,0,0,0,0,0,0,0,1.3658,1.3658,0,1.3613,1.3612,1.3612,1.3526,1.3524,1.3523,1.3521,1.3474,1.3474,1.3475,0,0,0,0,0,0,0,0,0,0,0,0,0,1.3672,1.3672,1.3658,1.3658,1.3657,1.3613,1.3612,1.3612,1.3526,1.3524,1.3522,1.352,1.3474,1.3474,1.3475,0,0,0,0,0,0,0,0,0,0,0,0,0,1.365,1.3672,1.3658,1.3609,1.3604,1.3613,1.3612,1.3611,1.3527,1.3524,1.3522,1.3519,1.3474,1.3474,1.3475,1.3527,0,0,1.3476,1.3476,0,0,0,0,0,0,0,0,1.3651,1.365,1.3617,1.3612,1.3607,1.3572,1.36,1.3583,1.3527,1.3556,1.3521,1.3518,1.3509,1.3506,1.3503,1.3525,1.3523,1.3476,1.3476,1.3477,1.3477,0,0,0,0,0,0,0,1.3653,1.3651,1.364,1.3617,1.3611,1.359,1.3584,1.3596,1.3547,1.3553,1.3547,1.3543,1.3506,1.3503,1.3501,1.3522,1.3476,1.3476,1.3477,1.3477,1.3588,1.3591,0,0,0,0,0,0,1.3662,1.3653,1.3641,1.3639,1.3624,1.3591,1.3585,1.3586,1.3547,1.3538,1.3545,1.3539,1.3503,1.3501,1.3499,1.356,1.3477,1.3477,1.3477,1.3586,1.3589,1.3592,0,0,0,0,0,0,1.3662,1.3662,1.3643,1.3644,1.364,1.3594,1.3596,1.3586,1.3584,1.354,1.3531,1.3551,1.3501,1.3499,1.3522,1.3557,1.3477,1.3478,1.3582,1.3587,1.359,1.3682,0,0,0,0,0,0,1.3663,1.3662,1.3681,1.3645,1.3641,1.3666,1.3598,1.3587,1.3585,1.3576,1.3544,1.3536,1.3499,1.3522,1.3522,1.3557,1.3478,1.3579,1.3584,1.3589,1.3675,1.3689,1.37,0,0,0,0,0,1.3664,1.3708,1.3683,1.3682,1.3664,1.3669,1.3666,1.3623,1.3588,1.3607,1.358,1.3537,1.3553,1.3525,1.3525,1.356,1.3577,1.3583,1.3589,1.367,1.3686,1.3699,0,0,0,0,0,0,1.3749,1.3702,1.3674,1.3707,1.3693,1.3654,1.3677,1.3641,1.3635,1.3628,1.3574,1.3568,1.3598,1.3581,1.355,1.361,1.3558,1.3565,1.362,1.3635,1.3647,1.3651,1.3478,0,0,0,0,0,1.3771,1.3779,1.3738,1.3772,1.3766,1.3724,1.3724,1.3692,1.3675,1.3668,1.3642,1.3626,1.3628,1.363,1.3629,1.3672,1.3665,1.3697,1.3709,1.3719,1.3726,1.3749,1.3764,1.3612,1.3612,1.3612,0,0,1.3818,1.3794,1.3802,1.3789,1.3774,1.3784,1.3718,1.3731,1.3738,1.3669,1.369,1.3671,1.365,1.3685,1.3698,1.3671,1.3766,1.3727,1.3735,1.3736,1.3757,1.3772,1.3785,1.3616,1.3615,1.3614,0,0,1.3909,1.3891,1.3918,1.3905,1.3883,1.3855,1.3862,1.3829,1.3814,1.3834,1.3783,1.3791,1.3795,1.3783,1.3778,1.3867,1.3829,1.3869,1.3932,1.3956,1.3968,1.3978,1.4012,1.4025,1.3875,1.3875,1.3875,0,1.397,1.3983,1.3937,1.3954,1.395,1.389,1.3918,1.3907,1.3886,1.3885,1.3855,1.3861,1.3842,1.3874,1.3896,1.3893,1.3901,1.3872,1.397,1.398,1.3989,1.4021,1.4033,1.388,1.388,1.3879,1.3879,0,1.406,1.407,1.4095,1.4078,1.4077,1.4099,1.4057,1.4062,1.4032,1.4007,1.4029,1.4005,1.4,1.4005,1.3974,1.4033,1.4017,1.398,1.3927,1.401,1.4039,1.405,1.3888,1.3886,1.3884,1.3883,0,0,1.4201,1.416,1.417,1.4163,1.4136,1.4143,1.4164,1.4159,1.4165,1.4153,1.417,1.4176,1.4142,1.4136,1.4104,1.4125,1.42,1.4085,1.4083,1.4109,1.4266,1.4296,1.431,1.4174,1.4176,1.4178,1.4269,0,1.4287,1.432,1.428,1.4322,1.4332,1.4276,1.4294,1.428,1.4258,1.4264,1.4239,1.4245,1.4198,1.4195,1.4213,1.4187,1.4231,1.418,1.4191,1.4192,1.4199,1.4325,1.4356,1.4442,1.4279,1.4281,1.4283,0,1.439,1.4386,1.4429,1.4402,1.4405,1.4422,1.4416,1.4422,1.4405,1.4388,1.4383,1.4345,1.4364,1.4313,1.434,1.4306,1.4308,1.4297,1.4299,1.4299,1.4243,1.433,1.4468,1.4482,1.43,1.4298,1.4297,0,1.4492,1.4496,1.4523,1.4518,1.4487,1.4501,1.4488,1.4469,1.447,1.4465,1.4465,1.4462,1.4461,1.446,1.4423,1.4389,1.4455,1.44,1.4442,1.4444,1.4459,1.4459,1.4602,1.4459,1.4459,1.4459,1.4458,0,1.4592,1.4621,1.4568,1.4585,1.4617,1.4572,1.4604,1.4586,1.4571,1.4584,1.4534,1.4548,1.4497,1.4506,1.4477,1.4505,1.4504,1.4491,1.4483,1.4496,1.4498,1.4497,1.4491,1.4462,1.4461,1.4461,1.446,0,1.471,1.4675,1.4702,1.4671,1.4664,1.4689,1.4663,1.4678,1.4653,1.467,1.4672,1.4634,1.4641,1.4604,1.4604,1.4585,1.4628,1.4609,1.4634,1.4629,1.4674,1.4671,1.4822,1.484,1.4685,1.4687,1.4688,0,1.4776,1.4798,1.477,1.4776,1.4767,1.4776,1.4777,1.4734,1.4738,1.4723,1.474,1.4744,1.4744,1.4759,1.4732,1.4732,1.4714,1.4767,1.4714,1.4727,1.4717,1.4717,1.472,1.4779,1.478,1.4782,1.4783,0,1.4899,1.4882,1.4886,1.4885,1.4888,1.4885,1.4878,1.4886,1.4839,1.4846,1.4854,1.4855,1.4857,1.4862,1.4857,1.4845,1.4808,1.48,1.481,1.4824,1.4839,1.4834,1.4666,1.4797,1.4796,1.4795,1.4794,1.4793,1.4994,1.5012,1.4996,1.5003,1.4994,1.499,1.5003,1.4982,1.4987,1.4986,1.4961,1.4974,1.496,1.495,1.4942,1.4952,1.4927,1.4941,1.4945,1.495,1.4959,1.4837,1.4951,1.4951,1.495,1.495,1.4949,0,1.5116,1.5104,1.511,1.5104,1.511,1.5075,1.5067,1.5074,1.5087,1.5077,1.5079,1.509,1.5095,1.5069,1.5071,1.5085,1.5068,1.5087,1.5086,1.5084,1.498,1.4972,1.5101,1.5101,1.5101,1.5101,1.5101,1.5101,1.518,1.5209,1.519,1.5215,1.5202,1.5216,1.5215,1.5211,1.5203,1.5217,1.5222,1.5205,1.519,1.5191,1.5195,1.5187,1.5191,1.5216,1.5203,1.5106,1.5091,1.5077,1.5069,1.5217,1.5217,1.5306,1.5307,1.5308]},{"header":{"parameterUnit":"m.s-1","parameterCategory":1,"la1":30.2991,"la2":30.254,"lo1":-89.0895,"lo2":-89.0444,"dy":0.0017,"dx":0.0017,"nx":28,"ny":28,"refTime":"2023-09-07T09:00:00:Z","depth":0,"parameterNumber":3,"parameterNumberName":"V-component_of_WINDS"},"data":[0,0,0,0,0,0,0,0,0,0,0,0,0,0,0,0,0,0,0,0,0,0,0,0,0,0,0,0,0,0,0,0,0,0,0,0,0,0,0,0,0,0,0,0,0,0,0,0,0,0,0,0,0,0,0,0,0,0,-0.062,-0.062,0,-0.0573,-0.0572,-0.0572,-0.0562,-0.0562,-0.0563,-0.0563,-0.0515,-0.0513,-0.0512,0,0,0,0,0,0,0,0,0,0,0,0,0,-0.0706,-0.0704,-0.062,-0.062,-0.0619,-0.0573,-0.0572,-0.0572,-0.0562,-0.0562,-0.0563,-0.0563,-0.0516,-0.0514,-0.0512,0,0,0,0,0,0,0,0,0,0,0,0,0,-0.0664,-0.0704,-0.0621,-0.0609,-0.0607,-0.0573,-0.0572,-0.0571,-0.0562,-0.0562,-0.0563,-0.0563,-0.0516,-0.0514,-0.0511,-0.0486,0,0,-0.0504,-0.0503,0,0,0,0,0,0,0,0,-0.0667,-0.0661,-0.0611,-0.061,-0.0608,-0.0574,-0.0585,-0.0543,-0.0562,-0.0579,-0.0563,-0.0564,-0.0534,-0.053,-0.052,-0.0483,-0.0481,-0.0504,-0.0502,-0.0501,-0.0501,0,0,0,0,0,0,0,-0.067,-0.0663,-0.0602,-0.061,-0.0608,-0.0607,-0.0602,-0.0577,-0.0554,-0.0578,-0.0577,-0.0571,-0.0533,-0.0523,-0.0519,-0.0481,-0.0504,-0.0502,-0.05,-0.0499,-0.0424,-0.0423,0,0,0,0,0,0,-0.0674,-0.0666,-0.0603,-0.06,-0.0639,-0.0605,-0.0599,-0.0584,-0.0554,-0.055,-0.0571,-0.0571,-0.0526,-0.0522,-0.0517,-0.0487,-0.0501,-0.0499,-0.0498,-0.0424,-0.0424,-0.0423,0,0,0,0,0,0,-0.0676,-0.0669,-0.0605,-0.0633,-0.0625,-0.0603,-0.0586,-0.0583,-0.0572,-0.0549,-0.0545,-0.0564,-0.0527,-0.0521,-0.0494,-0.0485,-0.0498,-0.0496,-0.0425,-0.0424,-0.0423,-0.0426,0,0,0,0,0,0,-0.0679,-0.067,-0.0659,-0.0633,-0.0623,-0.0582,-0.0586,-0.0582,-0.0568,-0.0568,-0.0542,-0.0538,-0.0527,-0.0498,-0.0492,-0.0482,-0.0494,-0.0426,-0.0425,-0.0424,-0.0426,-0.0425,-0.0424,0,0,0,0,0,-0.0682,-0.0661,-0.0658,-0.0651,-0.0609,-0.0581,-0.0576,-0.0563,-0.0567,-0.0557,-0.0543,-0.0539,-0.0487,-0.0495,-0.0488,-0.0478,-0.0426,-0.0425,-0.0424,-0.0427,-0.0425,-0.0424,0,0,0,0,0,0,-0.0685,-0.0657,-0.0654,-0.0623,-0.0605,-0.058,-0.0566,-0.0562,-0.0542,-0.0542,-0.0528,-0.0522,-0.0497,-0.0485,-0.0494,-0.0453,-0.0457,-0.0455,-0.0462,-0.046,-0.0459,-0.0463,-0.0492,0,0,0,0,0,-0.0683,-0.0662,-0.0639,-0.0614,-0.0605,-0.0587,-0.0575,-0.0567,-0.0547,-0.0539,-0.0523,-0.0505,-0.0485,-0.0472,-0.0452,-0.0425,-0.042,-0.0414,-0.0413,-0.0412,-0.041,-0.0397,-0.0395,-0.0419,-0.0419,-0.0419,0,0,-0.0677,-0.0659,-0.0647,-0.0615,-0.0599,-0.058,-0.0581,-0.0559,-0.0545,-0.0536,-0.0511,-0.0499,-0.0477,-0.0451,-0.0439,-0.044,-0.0403,-0.0411,-0.041,-0.0408,-0.0396,-0.0394,-0.0392,-0.0418,-0.0418,-0.0419,0,0,-0.0656,-0.064,-0.0619,-0.0604,-0.0582,-0.057,-0.0566,-0.0542,-0.0533,-0.0508,-0.0502,-0.0485,-0.045,-0.0436,-0.0424,-0.0402,-0.0398,-0.0396,-0.039,-0.0377,-0.0376,-0.0374,-0.0367,-0.0365,-0.0394,-0.0394,-0.0394,0,-0.0652,-0.0621,-0.0609,-0.0588,-0.0575,-0.0568,-0.0547,-0.0534,-0.0506,-0.0498,-0.05,-0.0458,-0.0443,-0.0414,-0.0409,-0.04,-0.0395,-0.0399,-0.0377,-0.0375,-0.0373,-0.0367,-0.0364,-0.0394,-0.0394,-0.0394,-0.0394,0,-0.0618,-0.0597,-0.0583,-0.0557,-0.0543,-0.0522,-0.0508,-0.0495,-0.049,-0.0479,-0.0454,-0.0436,-0.0414,-0.0407,-0.04,-0.0378,-0.038,-0.038,-0.0383,-0.0371,-0.0365,-0.0362,-0.0394,-0.0394,-0.0394,-0.0394,0,0,-0.0597,-0.0566,-0.0561,-0.0551,-0.0527,-0.0511,-0.0491,-0.047,-0.046,-0.0442,-0.0426,-0.0398,-0.0399,-0.0385,-0.0378,-0.0367,-0.0353,-0.0368,-0.0368,-0.0367,-0.033,-0.0331,-0.0328,-0.0351,-0.035,-0.035,-0.0332,0,-0.0574,-0.0538,-0.0528,-0.0498,-0.048,-0.0474,-0.0458,-0.0442,-0.0432,-0.0416,-0.0405,-0.0386,-0.0387,-0.038,-0.0369,-0.0357,-0.0345,-0.0358,-0.0337,-0.0336,-0.0343,-0.0324,-0.0324,-0.0308,-0.0329,-0.0329,-0.0329,0,-0.0543,-0.0525,-0.0494,-0.0475,-0.0467,-0.0451,-0.0433,-0.0417,-0.04,-0.0394,-0.038,-0.0374,-0.0355,-0.0361,-0.0336,-0.0345,-0.0336,-0.0329,-0.0328,-0.0326,-0.0332,-0.0322,-0.0303,-0.0301,-0.0325,-0.0325,-0.0325,0,-0.0532,-0.0501,-0.0478,-0.0469,-0.0446,-0.0436,-0.0426,-0.0409,-0.0398,-0.0382,-0.0375,-0.0356,-0.0346,-0.0333,-0.0323,-0.0327,-0.0299,-0.0303,-0.0294,-0.0295,-0.0288,-0.0289,-0.0268,-0.0282,-0.0282,-0.0282,-0.0282,0,-0.0509,-0.049,-0.0474,-0.046,-0.044,-0.0429,-0.041,-0.04,-0.0386,-0.0371,-0.0365,-0.0352,-0.0339,-0.0324,-0.0316,-0.0298,-0.0293,-0.0288,-0.0287,-0.0289,-0.029,-0.0283,-0.0284,-0.0281,-0.0281,-0.0282,-0.0282,0,-0.0493,-0.0481,-0.0457,-0.0438,-0.0433,-0.0419,-0.0403,-0.039,-0.0381,-0.0363,-0.0358,-0.0343,-0.0326,-0.0315,-0.0293,-0.0288,-0.0268,-0.0266,-0.0273,-0.0273,-0.0265,-0.0266,-0.0239,-0.0235,-0.0252,-0.0251,-0.0251,0,-0.0479,-0.0465,-0.0445,-0.0435,-0.0425,-0.0408,-0.0397,-0.0387,-0.0375,-0.0357,-0.0347,-0.0329,-0.0315,-0.0288,-0.0276,-0.0259,-0.0258,-0.0249,-0.0255,-0.0259,-0.0259,-0.026,-0.0259,-0.0248,-0.0248,-0.0248,-0.0248,0,-0.0456,-0.0451,-0.0435,-0.0418,-0.0405,-0.0391,-0.0377,-0.0369,-0.0357,-0.0345,-0.0327,-0.0316,-0.0294,-0.0278,-0.0261,-0.0251,-0.0248,-0.0247,-0.0244,-0.0246,-0.0252,-0.025,-0.0272,-0.0247,-0.0247,-0.0247,-0.0247,-0.0247,-0.0441,-0.0429,-0.0414,-0.0397,-0.0386,-0.0373,-0.0361,-0.0351,-0.0336,-0.0318,-0.0313,-0.0295,-0.0281,-0.0258,-0.0249,-0.0236,-0.0237,-0.0232,-0.0231,-0.0231,-0.0231,-0.0254,-0.0232,-0.0232,-0.0232,-0.0232,-0.0232,0,-0.0419,-0.0409,-0.0394,-0.0375,-0.0362,-0.0361,-0.0346,-0.0335,-0.032,-0.0307,-0.0293,-0.0274,-0.0259,-0.0247,-0.0231,-0.0223,-0.0221,-0.0219,-0.022,-0.0218,-0.0231,-0.0235,-0.0221,-0.0221,-0.0221,-0.0221,-0.0221,-0.0221,-0.0406,-0.0386,-0.038,-0.0356,-0.0346,-0.0329,-0.0321,-0.031,-0.03,-0.0279,-0.0266,-0.0259,-0.0247,-0.023,-0.0217,-0.0214,-0.0209,-0.0207,-0.0204,-0.0216,-0.0217,-0.0218,-0.0222,-0.0206,-0.0206,-0.0192,-0.0192,-0.0192]}]]